Content
SEND FEEDBACK

Daily
Averages
Monthly
Summary
United States of America

POTTS JUNCTION, GUAM


Home > North America > United States > Guam
Elevation: 360 feet     Latitude: 13 33N     Longitude: 144 50E

WEATHER
 
SELECT A DAY
Number of Records: 213,928;   Date Range: 1/1/95 - 10/24/14
 
SHARE

PRINT THIS DATA

[ ← Previous Day ]
WEATHER ALMANAC - AUGUST 26, 2013
[ Next Day → ]
[ °C ]   °F
Weather ElementAverageHighLow
Temperature82 °F86 °F (9:54 am)77 °F (4:54 am)
Dewpoint75.1 °F77 °F (2:54 pm)73.4 °F (2:24 pm)
Humidity79.8 %90 % (1:54 am)70 % (9:54 am)
Barometer29.86 in29.91 in (8:54 am)29.82 in (4:54 pm)
Wind Speed2.5 mph6.9 mph (10:54 am)
Weather ElementAverage
Visibility9.8 mi
Wind DirectionESE (120.4 °)

Weather ElementTotal
Precipitation0.01 in
Cooling Degree Days16.5 (Base 65)
Growing Degree Days31.5 (Base 50)
Averaged from 28 records on August 26, 2013
WEATHER CONDITIONS BREAKOUT
WIND DIRECTION BREAKOUT
WEATHER BY HOUR - AUGUST 26, 2013
[ °C ]   °F
Local TimeTemperatureDewpointHumidityBarometerVisibilityWind DirectionWind SpeedGust SpeedPrecipitationEventsConditions
1:54 AM78.1 °F75.0 °F90 %29.87 in10.0 miCalmClear
2:54 AM78.1 °F73.9 °F87 %29.85 in10.0 miCalmClear
3:54 AM78.1 °F73.9 °F87 %29.85 in10.0 miCalmClear
4:54 AM77.0 °F73.9 °F90 %29.86 in10.0 miCalmClear
5:54 AM77.0 °F73.9 °F90 %29.86 in10.0 miCalmClear
6:54 AM78.1 °F75.0 °F90 %29.87 in10.0 miCalmClear
7:54 AM82.0 °F75.9 °F82 %29.89 in10.0 miCalmClear
8:54 AM84.9 °F75.9 °F74 %29.91 in10.0 miNorth (350°)4.6 mphScattered Clouds
9:54 AM86.0 °F75.0 °F70 %29.90 in10.0 miNNW (330°)5.8 mphScattered Clouds
10:54 AM84.9 °F75.9 °F74 %29.88 in10.0 miWest (270°)6.9 mphMostly Cloudy
11:54 AM84.9 °F75.0 °F72 %29.87 in10.0 miWNW (290°)6.9 mphScattered Clouds
12:12 PM82.4 °F75.2 °F79 %29.89 in5.0 miWest (280°)4.6 mph0.00 inRainLight Rain
12:54 PM82.9 °F75.9 °F79 %29.86 in10.0 miWNW (290°)5.8 mph0.01 inOvercast
1:54 PM84.0 °F75.0 °F74 %29.85 in10.0 miNNW (330°)5.8 mphThunderstormThunderstorm
2:24 PM84.2 °F73.4 °F70 %29.87 in10.0 miNNW (330°)4.6 mphOvercast
2:38 PM84.2 °F75.2 °F74 %29.86 in10.0 miSE (140°)4.6 mphOvercast
2:54 PM82.9 °F77.0 °F82 %29.84 in10.0 miCalmOvercast
3:54 PM84.0 °F75.0 °F74 %29.83 in10.0 miWest (280°)4.6 mphMostly Cloudy
4:01 PM84.2 °F75.2 °F74 %29.85 in10.0 miWest (280°)3.5 mphScattered Clouds
4:54 PM84.0 °F75.0 °F74 %29.82 in10.0 miCalmMostly Cloudy
5:11 PM84.2 °F75.2 °F74 %29.84 in10.0 miCalmScattered Clouds
5:54 PM84.0 °F75.0 °F74 %29.83 in10.0 miCalmPartly Cloudy
6:54 PM82.0 °F75.9 °F82 %29.85 in10.0 miCalmPartly Cloudy
7:54 PM82.0 °F75.9 °F82 %29.86 in10.0 miEast (90°)4.6 mphPartly Cloudy
8:54 PM82.0 °F75.9 °F82 %29.88 in10.0 miNE (50°)4.6 mphPartly Cloudy
9:54 PM81.0 °F75.9 °F85 %29.88 in10.0 miENE (60°)3.5 mphPartly Cloudy
10:54 PM81.0 °F75.0 °F82 %29.89 in10.0 miCalmPartly Cloudy
11:54 PM79.0 °F75.0 °F88 %29.88 in10.0 miCalmPartly Cloudy
Hourly data recorded from PGUM, located miles away from Potts Junction, Guam







STORIES FROM OUR PARTNERS